Location: ????????
(60.5616°N, 46.8254°E)
Time: 07:41:45
(UTC+00:00)

NOSS 5 (C) - Pass Details

Date: 18 February 2020
Orbit: 376 x 1736 km, 63.3° (Epoch: 27 March)

Event Time Altitude Azimuth Distance (km) Brightness Sun altitude
Rises 15:26:04 0° 232° (SW) 2,608 9.2 -12.5°
Reaches altitude 10° 15:28:25 10° 229° (SW) 1,592 7.9 -12.8°
Maximum altitude 15:31:45 61° 148° (SSE) 464 4.3 -13.2°
Enters shadow 15:33:12 27° 76° (ENE) 798 5.1 -13.4°
